map of ASU home
Great Circle Mapper logo
ASU - Airport
Location
City:  Asunción, Paraguay
Name:Silvio Pettirossi International Airport
ICAO / IATA:SGAS / ASU

Details
Type:Airport (Aerodrome, Airfield)
Use:Public/Civil, Military, International (customs port of entry)
Latitude:25°14'23"S (-25.239849)
Longitude:57°31'09"W (-57.519132)
Datum:WGS 1984
Elevation:292 ft (89 m)
Variation:13.64°W (WMM2015 magnetic declination)
-0.18° annual change
Runways:1
Longest:11001 × 151 ft (3353 × 46 m), paved

Time
Time Zone:UTC-4 (DST-3)
Local Time:

Weather
METAR:SGAS 302100Z 16012KT 120V180 9999 FEW033 29/19 Q1011
TAF:SGAS 302125Z 3100/3124 16010KT CAVOK TX35/3119Z TN22/3109Z
BECMG 3112/3115 18010KT 9999 SCT033

Related Locations
Nearby:
Farthest:TSA: 12386 mi / 19934 km
Taipei [Taipei Songshan (Sung Shan)], TW

Find:

   beyond  
but within

Other Information
Maps:
NOTAMs:
Links:
Sources:

  
flag of Paraguay   

Airport Diagram

Airport diagram for ASU

Airport diagram (OBSOLETE) from NGA

Sectional Chart

Flight Planning
at skyvector.com

Satellite Image

Google Maps Satellite View

 

Copyright © 2004-2015 Karl L. Swartz. All rights reserved.
The Great Circle Mapper name and logo are trademarks of the Great Circle Mapper.
All other trademarks mentioned herein belong to their respective owners.
Please see credits for attibutions and further copyright information.

  Follow gcmap on Facebook Follow gcmap on Twitter

hCard Microformat

Geo Microformat